STARLINK-1352, 45536

Orbit data source: Space-Track

STARLINK-1352, 45536 is a payload satellite owned by SpaceX/Seattle (US) in LEO that was launched on Wed, 22 Apr 2020 UTC via an FALCON 9 launch vehicle from the Air Force Eastern Test Range (AFETR). Payloads include a variety of satellites, spacecraft, and rockets equipped with specific instruments for various scientific and technological missions. These include communications satellites like Starlink; space stations such as the ISS; scientific satellites like the Hubble; Earth observation satellites from companies like Planet Labs, Umbra, and HawkEye 360; GPS; miniature CubeSats for education and research; and military/defense satellites.

Loading next visibility...
STARLINK-1352 details
Identifier
45536, 2020-025F
Orbit
LEO
Last TLE update21 hours ago
Origin
Flag of USSpaceX/Seattle (US)
ManufacturerSpaceX/Seattle
MissionOperational Commercial Communications
Bus & MotorSTARLINK, Unknown motor
Mass260 kg wet, ~248 kg dry
Launch date (UTC)
2020-04-22 (5 years ago)
Launch vehicle
FALCON 9
Launch site
Air Force Eastern Test Range (AFETR)
Object type
Payload
Rocket body
Debris
Shape & HBRBox + 1 Pan, 8.86 m
Radar Cross Section13.562 m², Large (>1 m²)

Expand to show TLE details & history

TLE from 21 hours ago
0 STARLINK-1352
1 45536U 20025F   24336.48867057  .00016009  00000-0  10547-2 0  9990
2 45536  53.0560  25.8849 0002596  64.8152 295.3106 15.07661789254690
Epoch: 2024-12-01T11:43Z
Definitive object data (Epoch: 2024-12-01T11:43:41.137Z)
Latitude-0.00005°
Longitude139.1373°
Altitude543.459 km
Speed7.592 km/s
True Right ascension01h 43m 32s
True Declination0° 00' 00"
Sunlit
Object was in full shadow at TLE epoch
Visualization TLE readout
Latitude35.11341°
Longitude166.95061°
Altitude544.182 km
Speed7.596 km/s
Apparent Right ascension23h 41m 49s
Apparent Declination-1° 37' 39"
Sunlit
Object is in full shadow
Visualization observer readout
Local Sidereal Time06:23:02
Azimuth275.398° WNW
Elevation-8.937°
Doppler factor1
Orbital elements
Apogee altitude545.415 km
Perigee altitude541.821 km
Semi-major axis6,921.755 km
Eccentricity0.0002596
Inclination53.056°
RAAN25.8849°
Arg. of periapsis64.8152°
True anomaly295.2837°
Mean anomaly295.3106°
Eccentric anomaly295.29715°
Mean motion3.76894 °/min
BSTAR0.0010547
Orbital period95.52 mins
Loading maneuver chart data...
Loading historical data...
Loading historical data...
Loading historical data...
Loading historical data...
Loading historical data...
Loading historical data...
Loading historical data...

STARLINK-1352 Visibility forecast

Observer location: undefined°, undefined

Span
Click to sort rows by Start time (UTC) header in descending order
Start Az.
Max El. time (UTC)
Max El. Az.
Max El.
End time (UTC)
End Az.
4 mins2024-12-02 08:43:46.458Z319.81° NNW2024-12-02 08:45:46.458Z352° N14.354°2024-12-02 08:47:46.458Z22.201° NNE
5 mins2024-12-02 12:04:46.458Z339.652° N2024-12-02 12:06:46.458Z30.547° NE29.78°2024-12-02 12:09:46.458Z92.394° ESE
6 mins2024-12-02 13:43:46.458Z284.318° WNW2024-12-02 13:45:46.458Z242.506° WSW29.906°2024-12-02 13:49:46.458Z161.448° S
6 mins2024-12-03 05:15:46.458Z193.31° SSW2024-12-03 05:17:46.458Z150.844° SSE31.836°2024-12-03 05:21:46.458Z64.919° ENE
5 mins2024-12-03 06:55:46.458Z282.81° WNW2024-12-03 06:57:46.458Z333.053° NNW28.34°2024-12-03 07:00:46.458Z31.281° NE
|